Hourly Weather Darwin

Today, 28 October, Wednesday

Time Temperature Precipitation Wind Pressure Humidity
00:00 +29°C° 0 mm 2 mps 758 mmHg 71%
01:00 +29°C° 0.2 mm 2 mps 758 mmHg 73%
02:00 +29°C° 0.2 mm 2 mps 757 mmHg 75%
03:00 +28°C° 0 mm 1 mps 757 mmHg 76%
04:00 +28°C° 1.1 mm 1 mps 758 mmHg 78%
05:00 +28°C° 1.1 mm 1 mps 758 mmHg 80%
06:00 +27°C° 1.1 mm 1 mps 759 mmHg 82%
07:00 +29°C° 0.4 mm 1 mps 759 mmHg 74%
08:00 +31°C° 0.4 mm 2 mps 760 mmHg 66%
09:00 +34°C° 0.4 mm 2 mps 760 mmHg 58%
10:00 +36°C° 0 mm 2 mps 760 mmHg 52%
11:00 +36°C° 0 mm 1 mps 759 mmHg 46%
12:00 +39°C° 0 mm 1 mps 759 mmHg 41%
13:00 +38°C° 0 mm 2 mps 758 mmHg 44%
14:00 +37°C° 0 mm 2 mps 757 mmHg 47%
15:00 +36°C° 0 mm 3 mps 756 mmHg 50%
16:00 +35°C° 0 mm 3 mps 757 mmHg 54%
17:00 +34°C° 0 mm 3 mps 757 mmHg 58%
18:00 +33°C° 0 mm 3 mps 757 mmHg 63%
19:00 +33°C° 0.1 mm 3 mps 758 mmHg 65%
20:00 +31°C° 0.1 mm 3 mps 758 mmHg 68%
21:00 +31°C° 0.1 mm 3 mps 759 mmHg 70%
22:00 +30°C° 2 mm 3 mps 759 mmHg 73%
23:00 +29°C° 2 mm 2 mps 759 mmHg 77%

Tomorrow, 29 October, Thursday

Time Temperature Precipitation Wind Pressure Humidity
00:00 +29°C° 2 mm 1 mps 759 mmHg 80%
01:00 +29°C° 0.7 mm 2 mps 758 mmHg 80%
02:00 +28°C° 0.7 mm 3 mps 758 mmHg 80%
03:00 +28°C° 0.7 mm 3 mps 758 mmHg 79%
04:00 +28°C° 0 mm 3 mps 758 mmHg 79%
05:00 +28°C° 0 mm 2 mps 759 mmHg 78%
06:00 +28°C° 0 mm 1 mps 759 mmHg 77%
07:00 +30°C° 0 mm 1 mps 759 mmHg 70%
08:00 +32°C° 0 mm 1 mps 760 mmHg 62%
09:00 +32°C° 0 mm 0 mps 760 mmHg 55%
10:00 +35°C° 0 mm 1 mps 759 mmHg 48%
11:00 +36°C° 0 mm 1 mps 759 mmHg 40%
12:00 +38°C° 0 mm 2 mps 758 mmHg 33%
13:00 +39°C° 0 mm 2 mps 757 mmHg 33%
14:00 +39°C° 0 mm 2 mps 757 mmHg 33%
15:00 +39°C° 0 mm 3 mps 756 mmHg 33%
16:00 +37°C° 0 mm 3 mps 756 mmHg 42%
17:00 +35°C° 0 mm 4 mps 756 mmHg 51%
18:00 +33°C° 0 mm 4 mps 756 mmHg 60%
19:00 +33°C° 0 mm 4 mps 756 mmHg 64%
20:00 +31°C° 0 mm 3 mps 757 mmHg 68%
21:00 +30°C° 0 mm 3 mps 758 mmHg 71%
22:00 +30°C° 0.1 mm 3 mps 758 mmHg 72%
23:00 +30°C° 0.1 mm 3 mps 758 mmHg 74%

Day after tomorrow, 30 October, Friday

Time Temperature Precipitation Wind Pressure Humidity
00:00 +30°C° 0.1 mm 3 mps 758 mmHg 75%
01:00 +29°C° 0.7 mm 3 mps 757 mmHg 76%
02:00 +29°C° 0.7 mm 3 mps 757 mmHg 77%
03:00 +28°C° 0.7 mm 4 mps 757 mmHg 78%
04:00 +28°C° 0.1 mm 3 mps 757 mmHg 76%
05:00 +28°C° 0.1 mm 2 mps 758 mmHg 75%
06:00 +28°C° 0.1 mm 2 mps 758 mmHg 73%
07:00 +30°C° 0 mm 2 mps 758 mmHg 65%
08:00 +32°C° 0 mm 2 mps 758 mmHg 58%
09:00 +34°C° 0 mm 2 mps 759 mmHg 50%
10:00 +36°C° 0 mm 2 mps 758 mmHg 46%
11:00 +37°C° 0 mm 2 mps 758 mmHg 41%
12:00 +38°C° 0 mm 2 mps 757 mmHg 37%
13:00 +37°C° 0 mm 3 mps 756 mmHg 39%
14:00 +37°C° 0 mm 4 mps 756 mmHg 41%
15:00 +37°C° 0 mm 5 mps 755 mmHg 43%
16:00 +35°C° 0 mm 5 mps 755 mmHg 49%
17:00 +34°C° 0 mm 5 mps 755 mmHg 54%
18:00 +33°C° 0 mm 5 mps 755 mmHg 60%
19:00 +32°C° 0 mm 5 mps 756 mmHg 63%
20:00 +32°C° 0 mm 5 mps 756 mmHg 67%
21:00 +30°C° 0 mm 5 mps 756 mmHg 71%
22:00 +30°C° 0 mm 4 mps 756 mmHg 72%
23:00 +29°C° 0 mm 3 mps 756 mmHg 74%

31 October, Saturday

Time Temperature Precipitation Wind Pressure Humidity
00:00 +29°C° 0 mm 2 mps 756 mmHg 76%
01:00 +29°C° 0 mm 2 mps 756 mmHg 77%
02:00 +28°C° 0 mm 2 mps 755 mmHg 78%
03:00 +28°C° 0 mm 2 mps 755 mmHg 79%
04:00 +28°C° 0.1 mm 1 mps 756 mmHg 80%
05:00 +28°C° 0.1 mm 1 mps 756 mmHg 81%
06:00 +28°C° 0.1 mm 1 mps 757 mmHg 82%
07:00 +30°C° 0 mm 1 mps 757 mmHg 73%
08:00 +32°C° 0 mm 2 mps 757 mmHg 64%
09:00 +35°C° 0 mm 2 mps 757 mmHg 55%
10:00 +36°C° 0 mm 2 mps 757 mmHg 50%
11:00 +37°C° 0 mm 3 mps 756 mmHg 44%
12:00 +39°C° 0 mm 3 mps 756 mmHg 39%
13:00 +40°C° 0 mm 4 mps 755 mmHg 39%
14:00 +38°C° 0 mm 4 mps 755 mmHg 40%
15:00 +39°C° 0 mm 5 mps 754 mmHg 41%
16:00 +37°C° 0 mm 5 mps 754 mmHg 46%
17:00 +35°C° 0 mm 5 mps 754 mmHg 52%
18:00 +33°C° 0 mm 4 mps 754 mmHg 58%
19:00 +33°C° 0 mm 4 mps 755 mmHg 62%
20:00 +31°C° 0 mm 3 mps 756 mmHg 66%
21:00 +30°C° 0 mm 3 mps 756 mmHg 70%
22:00 +30°C° 0 mm 3 mps 756 mmHg 70%
23:00 +30°C° 0 mm 2 mps 756 mmHg 71%

1 November, Sunday

Time Temperature Precipitation Wind Pressure Humidity
00:00 +30°C° 0 mm 2 mps 756 mmHg 72%
01:00 +30°C° 0 mm 2 mps 756 mmHg 73%
02:00 +29°C° 0 mm 2 mps 756 mmHg 73%
03:00 +29°C° 0 mm 2 mps 756 mmHg 74%
04:00 +29°C° 0 mm 2 mps 757 mmHg 76%
05:00 +28°C° 0 mm 2 mps 757 mmHg 78%
06:00 +28°C° 0 mm 2 mps 757 mmHg 80%
07:00 +30°C° 0 mm 2 mps 758 mmHg 69%
08:00 +32°C° 0 mm 1 mps 758 mmHg 57%
09:00 +34°C° 0 mm 1 mps 758 mmHg 46%
10:00 +37°C° 0 mm 2 mps 758 mmHg 41%
11:00 +38°C° 0 mm 2 mps 757 mmHg 35%
12:00 +40°C° 0 mm 2 mps 757 mmHg 29%
13:00 +39°C° 0 mm 3 mps 756 mmHg 29%
14:00 +40°C° 0 mm 4 mps 756 mmHg 29%
15:00 +40°C° 0 mm 5 mps 755 mmHg 29%
16:00 +38°C° 0 mm 4 mps 756 mmHg 33%
17:00 +37°C° 0 mm 4 mps 756 mmHg 37%
18:00 +35°C° 0 mm 4 mps 756 mmHg 40%
19:00 +34°C° 0 mm 4 mps 756 mmHg 47%
20:00 +33°C° 0 mm 4 mps 757 mmHg 54%
21:00 +32°C° 0 mm 4 mps 758 mmHg 61%
22:00 +32°C° 0 mm 4 mps 758 mmHg 64%
23:00 +30°C° 0 mm 3 mps 758 mmHg 67%

2 November, Monday

Time Temperature Precipitation Wind Pressure Humidity
00:00 +30°C° 0 mm 3 mps 758 mmHg 69%
01:00 +29°C° 0 mm 2 mps 758 mmHg 70%
02:00 +29°C° 0 mm 1 mps 758 mmHg 71%
03:00 +27°C° 0 mm 0 mps 758 mmHg 72%
04:00 +27°C° 0 mm 0 mps 758 mmHg 73%
05:00 +27°C° 0 mm 0 mps 758 mmHg 73%
06:00 +26°C° 0 mm 0 mps 759 mmHg 74%
07:00 +29°C° 0 mm 0 mps 759 mmHg 66%
08:00 +33°C° 0 mm 1 mps 759 mmHg 57%
09:00 +35°C° 0 mm 1 mps 759 mmHg 49%
10:00 +37°C° 0 mm 1 mps 759 mmHg 41%
11:00 +40°C° 0 mm 2 mps 758 mmHg 33%
12:00 +43°C° 0 mm 3 mps 758 mmHg 25%
13:00 +42°C° 0 mm 3 mps 757 mmHg 29%
14:00 +41°C° 0 mm 4 mps 756 mmHg 34%
15:00 +40°C° 0 mm 4 mps 755 mmHg 38%
16:00 +37°C° 0 mm 4 mps 755 mmHg 44%
17:00 +36°C° 0 mm 4 mps 756 mmHg 50%
18:00 +34°C° 0 mm 4 mps 756 mmHg 57%
19:00 +33°C° 0 mm 4 mps 756 mmHg 62%
20:00 +33°C° 0 mm 4 mps 757 mmHg 67%
21:00 +31°C° 0 mm 3 mps 757 mmHg 72%
22:00 +31°C° 0 mm 3 mps 758 mmHg 72%
23:00 +30°C° 0 mm 2 mps 758 mmHg 73%
Show more